Location: Altenst�hlen
(53.5567°N, 8.9425°E)
Time: 22:20:59
(UTC+00:00)

STARLINK-81 - Pass Details

Date: 23 October 2019
Orbit: 548 x 551 km, 53.0° (Epoch: 17 November)

Event Time Altitude Azimuth Distance (km) Brightness Sun altitude
Rises 17:30:04 0° 273° (W) 2,719 9.2 -12.4°
Reaches altitude 10° 17:32:18 10° 273° (W) 1,825 7.8 -12.7°
Maximum altitude 17:36:27 82° 187° (S) 560 3.6 -13.3°
Enters shadow 17:39:01 23° 101° (E) 1,212 4.8 -13.7°
